Location: Alvis C Story Elementary School
(33.0968°N, 96.6364°W)
Time: 13:00:29
(UTC+00:00)

Lacrosse 5 rocket - Pass Details

Date: 01 July 2022
Orbit: 456 x 628 km, 57.0° (Epoch: 17 August)

Event Time Altitude Azimuth Distance (km) Brightness Sun altitude
Rises 04:56:43 0° 310° (NW) 2,645 5.8 -29.5°
Reaches altitude 10° 04:59:00 10° 301° (WNW) 1,785 4.6 -29.7°
Enters shadow 05:00:24 19° 288° (WNW) 1,324 3.6 -29.8°
